Meacham, OR

9:15 AM PST on January 20, 2017 (GMT -0800)
Meacham

Weather History for KMEH - February, 2013

Change the Weather History Date:

Wednesday, February 20, 2013

  Actual Average Record
Temperature  
Mean Temperature 26 °F -  
Max Temperature 34 °F 38 °F 46 °F (1998)
Min Temperature 17 °F 19 °F -6 °F (2006)
Degree Days  
Heating Degree Days 40    
Moisture  
Dew Point 23 °F    
Average Humidity 84    
Maximum Humidity 93    
Minimum Humidity 70    
Precipitation  
Precipitation 0.01 in - - ()
Sea Level Pressure  
Sea Level Pressure 29.95 in    
Wind  
Wind Speed 0 mph (North)    
Max Wind Speed 5 mph    
Max Gust Speed -    
Visibility 9 miles    
Events Snow    
Averages and records for this station are not official NWS values.
T = Trace of Precipitation, MM = Missing Value Source: NWS Daily Summary

Daily Weather History Graph

Daily Weather History Graph

Search for Another Location

Airport or City:

Trip Planner

Search our weather history database for the weather conditions in past years. The results will help you decide how hot, cold, wet, or windy it might be!

Date:

Astronomy

Feb. 20, 2013 Rise Set
Actual Time 6:46 AM PST 5:28 PM PST
Civil Twilight 6:16 AM PST 5:58 PM PST
Nautical Twilight 5:42 AM PST 6:33 PM PST
Astronomical Twilight 5:08 AM PST 7:07 PM PST
Moon 12:45 PM PST 3:19 AM PST
Length of Visible Light 11h 41m
Length of Day
10h 41m
Waxing Gibbous, 77% of the Moon is Illuminated
Feb 20
Waxing Gibbous
Feb 25
Full
Mar 4
Last Quarter
Mar 11
New
Mar 19
First Quarter

Hourly Weather History & Observations

Time (PST) Temp. Windchill Dew Point Humidity Pressure Visibility Wind Dir Wind Speed Gust Speed Precip Events Conditions
12:03 AM 17.6 °F - 14.0 °F 86% 29.84 in 3.0 mi Calm Calm - N/A   Overcast
12:56 AM 18.0 °F - 15.1 °F 88% 29.95 in 9.0 mi Calm Calm - N/A   Overcast
1:06 AM 17.6 °F - 15.8 °F 93% 29.85 in 9.0 mi Calm Calm - N/A   Overcast
1:56 AM 19.9 °F - 17.1 °F 89% 29.94 in 10.0 mi Calm Calm - N/A   Overcast
2:56 AM 21.0 °F - 18.0 °F 88% 29.95 in 8.0 mi Calm Calm - N/A   Overcast
3:19 AM 21.2 °F - 17.6 °F 86% 29.86 in 4.0 mi Calm Calm - 0.00 in Snow Light Snow
3:27 AM 21.2 °F - 19.4 °F 93% 29.86 in 6.0 mi Calm Calm - 0.00 in Snow Light Snow
3:56 AM 21.0 °F - 19.0 °F 92% 29.95 in 8.0 mi Calm Calm - 0.01 in   Overcast
4:18 AM 21.2 °F - 19.4 °F 93% 29.86 in 9.0 mi Calm Calm - N/A   Overcast
4:32 AM 21.2 °F - 19.4 °F 93% 29.86 in 6.0 mi Calm Calm - 0.00 in Snow Light Snow
4:56 AM 21.9 °F - 19.9 °F 92% 29.96 in 9.0 mi Calm Calm - 0.00 in   Overcast
5:56 AM 24.1 °F - 21.0 °F 88% 29.98 in 9.0 mi Calm Calm - N/A   Overcast
6:56 AM 25.0 °F - 21.9 °F 88% 29.99 in 9.0 mi Calm Calm - N/A   Overcast
7:56 AM 27.0 °F - 25.0 °F 92% 30.00 in 6.0 mi Calm Calm - N/A   Overcast
8:56 AM 28.0 °F - 26.1 °F 92% 30.02 in 8.0 mi Calm Calm - N/A   Overcast
9:25 AM 30.2 °F - 26.6 °F 86% 29.91 in 10.0 mi Calm Calm - N/A   Mostly Cloudy
9:56 AM 30.0 °F - 25.0 °F 82% 30.01 in 10.0 mi Calm Calm - N/A   Overcast
10:12 AM 30.2 °F - 24.8 °F 80% 29.91 in 10.0 mi Calm Calm - N/A   Mostly Cloudy
10:21 AM 30.2 °F - 24.8 °F 80% 29.91 in 10.0 mi Calm Calm - N/A   Scattered Clouds
10:56 AM 30.9 °F - 24.1 °F 76% 30.02 in 10.0 mi Calm Calm - N/A   Clear
11:14 AM 33.8 °F - 24.8 °F 70% 29.91 in 10.0 mi Calm Calm - N/A   Mostly Cloudy
11:39 AM 33.8 °F - 24.8 °F 70% 29.91 in 10.0 mi Calm Calm - N/A   Scattered Clouds
11:56 AM 32.0 °F - 25.0 °F 75% 30.01 in 10.0 mi Calm Calm - N/A   Partly Cloudy
12:56 PM 34.0 °F - 26.1 °F 73% 29.99 in 10.0 mi Calm Calm - N/A   Overcast
1:56 PM 33.1 °F - 26.1 °F 75% 29.98 in 10.0 mi Calm Calm - N/A   Mostly Cloudy
2:56 PM 34.0 °F - 25.0 °F 70% 29.97 in 10.0 mi Calm Calm - N/A   Mostly Cloudy
3:56 PM 33.1 °F - 25.0 °F 72% 29.98 in 10.0 mi Calm Calm - N/A   Overcast
4:11 PM 33.8 °F 29.6 °F 24.8 °F 70% 29.89 in 10.0 mi Variable 4.6 mph - N/A   Overcast
4:56 PM 32.0 °F - 25.0 °F 75% 29.98 in 10.0 mi Calm Calm - N/A   Mostly Cloudy
5:04 PM 32.0 °F - 24.8 °F 75% 29.89 in 10.0 mi Calm Calm - N/A   Scattered Clouds
5:56 PM 28.9 °F - 25.0 °F 85% 29.99 in 10.0 mi Calm Calm - N/A   Clear
6:43 PM 28.4 °F - 26.6 °F 93% 29.91 in 10.0 mi Calm Calm - N/A   Overcast
6:56 PM 28.9 °F - 26.1 °F 89% 30.00 in 10.0 mi Calm Calm - N/A   Overcast
7:56 PM 30.0 °F - 25.0 °F 82% 30.00 in 6.0 mi Calm Calm - 0.00 in Snow Light Snow
8:37 PM 28.4 °F - 24.8 °F 86% 29.92 in 10.0 mi Calm Calm - 0.00 in   Mostly Cloudy
8:56 PM 28.9 °F - 25.0 °F 85% 30.00 in 10.0 mi Calm Calm - 0.00 in   Mostly Cloudy
9:56 PM 28.9 °F - 26.1 °F 89% 30.00 in 10.0 mi Calm Calm - N/A   Overcast
10:30 PM 26.6 °F - 24.8 °F 93% 29.92 in 10.0 mi Calm Calm - N/A   Scattered Clouds
10:56 PM 26.1 °F - 24.1 °F 92% 30.01 in 10.0 mi Calm Calm - N/A   Mostly Cloudy
11:52 PM 24.8 °F - 23.0 °F 93% 29.93 in 10.0 mi Calm Calm - N/A   Mostly Cloudy
11:56 PM 25.0 °F - 23.0 °F 92% 30.01 in 10.0 mi Calm Calm - N/A   Mostly Cloudy